Location: Cogollal
(10.0582°N, 67.8466°W)
Time: 12:11:11
(UTC+00:00)

ARIANE 5 R/B - Pass Details

Date: 14 April 2024
Orbit: 747 x 793 km, 98.8° (Epoch: 24 May)

Event Time Altitude Azimuth Distance (km) Brightness Sun altitude
Rises 09:01:47 0° 18° (NNE) 3,280 6.2 -20.0°
Reaches altitude 10° 09:04:08 10° 21° (NNE) 2,349 5.5 -19.4°
Maximum altitude 09:09:16 63° 102° (ESE) 871 3.0 -18.2°
Drops below altitude 10° 09:14:22 10° 183° (S) 2,329 4.8 -17.0°
Sets 09:16:41 0° 186° (S) 3,250 5.6 -16.4°
